Pittsfield, MA

8:56 AM EDT on May 23, 2017 (GMT -0400)
Pittsfield Municipal

Weather History for KPSF - April, 2014

Change the Weather History Date:

Sunday, April 6, 2014

  Actual Average Record
Temperature  
Mean Temperature 40 °F 40 °F  
Max Temperature 51 °F 50 °F 73 °F (1947)
Min Temperature 28 °F 30 °F 12 °F (1943)
Degree Days  
Heating Degree Days 25 25  
Month to date heating degree days 153 156  
Since 1 July heating degree days 6936 6563  
Cooling Degree Days 0 0  
Month to date cooling degree days 0 0  
Year to date cooling degree days 0 0  
Moisture  
Dew Point 20 °F    
Average Humidity 48    
Maximum Humidity 69    
Minimum Humidity 26    
Precipitation  
Precipitation 0.00 in 0.15 in 1.16 in (1958)
Month to date precipitation 0.11 0.98  
Year to date precipitation 9.62 9.95  
Sea Level Pressure  
Sea Level Pressure 30.10 in    
Wind  
Wind Speed 8 mph (WNW)    
Max Wind Speed 24 mph    
Max Gust Speed 35 mph    
Visibility 10 miles    
Events      
T = Trace of Precipitation, MM = Missing Value Source: NWS Daily Summary

Daily Weather History Graph

Daily Weather History Graph

Search for Another Location

Airport or City:

Trip Planner

Search our weather history database for the weather conditions in past years. The results will help you decide how hot, cold, wet, or windy it might be!

Date:

Astronomy

Apr. 06, 2014 Rise Set
Actual Time 6:27 AM EDT 7:24 PM EDT
Civil Twilight 5:58 AM EDT 7:53 PM EDT
Nautical Twilight 5:24 AM EDT 8:27 PM EDT
Astronomical Twilight 4:48 AM EDT 9:03 PM EDT
Moon 11:21 AM EDT (4/6) 1:22 AM EDT (4/6)
Length of Visible Light 13h 54m
Length of Day
12h 57m
Waxing Crescent, 43% of the Moon is Illuminated
Apr 6
Waxing Crescent
Apr 7
First Quarter
Apr 15
Full
Apr 22
Last Quarter
Apr 29
New

Hourly Weather History & Observations

Time (EDT) Temp. Windchill Dew Point Humidity Pressure Visibility Wind Dir Wind Speed Gust Speed Precip Events Conditions
12:54 AM 32.0 °F 22.1 °F 21.0 °F 64% 29.99 in 10.0 mi WNW 13.8 mph 31.1 mph N/A   Overcast
1:24 AM 32.0 °F 21.6 °F 21.0 °F 64% 29.97 in 10.0 mi WNW 15.0 mph 27.6 mph N/A   Overcast
1:54 AM 32.0 °F 21.6 °F 21.0 °F 64% 29.99 in 10.0 mi NW 15.0 mph 26.5 mph N/A   Overcast
2:54 AM 30.9 °F 20.2 °F 21.0 °F 67% 30.00 in 10.0 mi WNW 15.0 mph 25.3 mph N/A   Overcast
3:54 AM 30.0 °F 19.1 °F 19.9 °F 66% 30.02 in 10.0 mi NW 15.0 mph 28.8 mph N/A   Mostly Cloudy
4:54 AM 28.9 °F 16.9 °F 19.0 °F 67% 30.04 in 10.0 mi NW 17.3 mph 27.6 mph N/A   Mostly Cloudy
5:54 AM 28.9 °F - 19.0 °F 67% 30.06 in 10.0 mi North - - N/A   Overcast
6:54 AM 28.0 °F - 19.0 °F 69% 30.10 in 10.0 mi Calm Calm - N/A   Overcast
7:54 AM 30.0 °F 26.5 °F 19.0 °F 64% 30.13 in 10.0 mi Variable 3.5 mph - N/A   Mostly Cloudy
8:34 AM 30.9 °F 22.2 °F 19.0 °F 61% 30.11 in 10.0 mi WNW 10.4 mph - N/A   Scattered Clouds
8:54 AM 32.0 °F 22.1 °F 19.0 °F 59% 30.14 in 10.0 mi West 13.8 mph - N/A   Partly Cloudy
9:54 AM 34.0 °F 25.5 °F 19.0 °F 54% 30.15 in 10.0 mi West 11.5 mph - N/A   Clear
10:54 AM 37.0 °F 30.4 °F 19.0 °F 48% 30.14 in 10.0 mi NW 9.2 mph 19.6 mph N/A   Clear
11:54 AM 39.9 °F 33.9 °F 19.0 °F 43% 30.14 in 10.0 mi NNW 9.2 mph 19.6 mph N/A   Clear
12:54 PM 43.0 °F 37.2 °F 19.9 °F 40% 30.13 in 10.0 mi WNW 10.4 mph - N/A   Clear
1:54 PM 46.0 °F 41.4 °F 19.0 °F 34% 30.12 in 10.0 mi WNW 9.2 mph 19.6 mph N/A   Clear
2:54 PM 48.9 °F - 17.1 °F 28% 30.11 in 10.0 mi Variable 6.9 mph - N/A   Clear
3:54 PM 51.1 °F - 18.0 °F 27% 30.11 in 10.0 mi WNW 12.7 mph 17.3 mph N/A   Clear
4:54 PM 51.1 °F - 19.9 °F 29% 30.10 in 10.0 mi West 10.4 mph 18.4 mph N/A   Clear
5:54 PM 51.1 °F - 21.0 °F 31% 30.10 in 10.0 mi West 9.2 mph - N/A   Clear
6:54 PM 48.9 °F - 21.0 °F 33% 30.11 in 10.0 mi NNW 3.5 mph - N/A   Clear
7:54 PM 42.1 °F 39.2 °F 23.0 °F 47% 30.13 in 10.0 mi South 4.6 mph - N/A   Clear
8:54 PM 36.0 °F 32.1 °F 23.0 °F 59% 30.16 in 10.0 mi West 4.6 mph - N/A   Clear
9:54 PM 36.0 °F - 24.1 °F 62% 30.18 in 10.0 mi Calm Calm - N/A   Clear
10:54 PM 34.0 °F - 21.9 °F 61% 30.19 in 10.0 mi Calm Calm - N/A   Clear
11:54 PM 32.0 °F - 23.0 °F 69% 30.18 in 10.0 mi Calm Calm - N/A   Clear